DW6352 Weather Reports


time (UTC)temp
F
wind
direction
speed
knots
gust
knots
rain 1hr
in
rain 24hr
in
rain mn
in
humidity
%
barometer
mb
20260510210006 54 314 5.2 13.0 0.00 0.00 0.00 33 1020.4
20260510204501 54 334 4.3 13.9 0.00 0.00 0.00 30 1020.4
20260510203100 54 313 7.0 11.3 0.00 0.00 0.00 32 1020.4
20260510201629 53 323 3.5 13.9 0.00 0.00 0.00 33 1020.3
20260510200058 54 325 7.0 14.8 0.00 0.00 0.00 37 1020.5
20260510194604 53 333 7.8 13.0 0.00 0.00 0.00 35 1020.5
20260510193054 53 5 5.2 13.0 0.00 0.00 0.00 38 1020.4
20260510191605 52 321 5.2 13.9 0.00 0.00 0.00 37 1020.4
20260510190057 53 17 4.3 15.6 0.00 0.00 0.00 40 1020.4
20260510184550 53 34 6.1 13.9 0.00 0.00 0.00 42 1020.3
20260510183054 53 344 8.7 14.8 0.00 0.00 0.00 42 1020.3
20260510181554 52 325 6.1 15.6 0.00 0.00 0.00 42 1020.3
20260510180048 52 315 9.6 15.6 0.00 0.00 0.00 41 1020.2
20260510174547 52 360 11.3 17.4 0.00 0.00 0.00 41 1020.1
20260510173043 53 340 7.8 15.6 0.00 0.00 0.00 43 1019.9
20260510171547 52 338 8.7 15.6 0.00 0.00 0.00 42 1019.9
20260510170042 52 288 10.4 15.6 0.00 0.00 0.00 41 1019.9
20260510164539 51 340 3.5 13.9 0.00 0.00 0.00 42 1019.8
20260510163036 51 295 9.6 14.8 0.00 0.00 0.00 42 1019.9
20260510161533 51 317 10.4 13.9 0.00 0.00 0.00 41 1019.8
20260510160031 51 281 7.8 16.5 0.00 0.00 0.00 44 1019.7
20260510154532 51 331 7.8 16.5 0.00 0.00 0.00 43 1019.7
20260510153023 51 309 7.0 12.2 0.00 0.00 0.00 43 1019.6
20260510151520 50 304 7.8 17.4 0.00 0.00 0.00 43 1019.6
20260510150016 49 304 7.8 17.4 0.00 0.00 0.00 45 1019.5
20260510144515 49 318 7.0 15.6 0.00 0.00 0.00 46 1019.4
20260510143009 49 331 8.7 14.8 0.00 0.00 0.00 49 1019.4
20260510141509 47 335 8.7 16.5 0.00 0.00 0.00 53 1019.4
20260510140004 47 292 9.6 17.4 0.00 0.00 0.00 57 1019.1
20260510134607 46 321 7.0 13.9 0.00 0.00 0.00 61 1019.1
20260510133057 45 339 8.7 14.8 0.00 0.00 0.00 64 1019.0
20260510131555 45 331 4.3 10.4 0.00 0.00 0.00 66 1019.0
20260510130050 44 15 4.3 9.6 0.00 0.00 0.00 65 1018.9
20260510124547 44 311 3.5 7.8 0.00 0.00 0.00 65 1018.8
20260510123043 43 319 5.2 8.7 0.00 0.00 0.00 65 1018.6
20260510121542 42 307 2.6 4.3 0.00 0.00 0.00 66 1018.5
20260510120037 41 313 1.7 4.3 0.00 0.00 0.00 66 1018.3
20260510114533 41 242 0.9 3.5 0.00 0.00 0.00 67 1018.1
20260510113036 40 319 0.9 2.6 0.00 0.00 0.00 66 1017.9
20260510111526 40 319 0.9 2.6 0.00 0.00 0.00 66 1017.7
20260510110035 40 319 0.9 2.6 0.00 0.00 0.00 66 1017.6
20260510104522 41 319 0.9 2.6 0.00 0.01 0.00 65 1017.4
20260510103021 41 319 0.0 1.7 0.00 0.01 0.00 65 1017.1
20260510101519 41 319 0.9 2.6 0.00 0.01 0.00 64 1017.0
20260510100017 41 319 0.9 3.5 0.00 0.01 0.00 64 1016.8
20260510094518 41 349 1.7 3.5 0.00 0.08 0.00 64 1016.7
20260510093014 41 350 0.9 2.6 0.00 0.08 0.00 64 1016.3
20260510091514 41 343 0.9 4.3 0.00 0.08 0.00 64 1016.2
20260510090019 41 327 1.7 5.2 0.00 0.08 0.00 65 1016.1
20260510084517 40 315 3.5 7.8 0.00 0.13 0.00 67 1015.9
20260510083009 39 316 2.6 4.3 0.00 0.13 0.00 72 1015.7
20260510081506 37 330 1.7 3.5 0.00 0.13 0.00 76 1015.4
20260510080005 36 319 1.7 3.5 0.00 0.13 0.00 78 1015.2
20260510074503 35 286 0.9 4.3 0.00 0.13 0.00 77 1015.0
20260510073001 35 287 1.7 3.5 0.00 0.13 0.00 74 1015.1
20260510071559 35 287 0.9 2.6 0.00 0.13 0.00 72 1015.0
20260510070058 35 287 1.7 2.6 0.00 0.13 0.00 69 1014.9
20260510064604 36 293 0.9 2.6 0.00 0.13 0.00 67 1015.0
20260510063052 37 293 0.9 2.6 0.00 0.13 0.00 66 1014.8
20260510061550 37 293 0.0 2.6 0.00 0.13 0.00 65 1014.8
20260510060046 38 261 1.7 3.5 0.00 0.13 0.00 64 1014.7
20260510054543 38 322 0.9 2.6 0.00 0.13 0.00 63 1014.6
20260510053040 39 322 0.9 2.6 0.00 0.13 0.00 63 1014.6
20260510051536 40 322 0.0 2.6 0.00 0.13 0.00 61 1014.5
20260510050032 41 322 0.9 2.6 0.00 0.13 0.00 58 1014.4
20260510044535 42 322 0.9 2.6 0.00 0.13 0.13 56 1014.4
20260510043024 44 322 0.9 1.7 0.00 0.13 0.13 51 1014.3
20260510041522 46 322 0.0 1.7 0.00 0.13 0.13 47 1014.2
20260510040020 47 322 0.9 2.6 0.00 0.13 0.13 44 1014.1
20260510034519 48 315 2.6 4.3 0.00 0.13 0.13 43 1014.0
20260510033018 49 313 2.6 7.0 0.00 0.13 0.13 42 1013.9
20260510031522 49 314 5.2 11.3 0.00 0.13 0.13 42 1013.9
20260510030020 50 355 5.2 11.3 0.00 0.13 0.13 41 1013.7
20260510024516 50 302 6.1 10.4 0.00 0.13 0.13 41 1013.4
20260510023010 51 317 5.2 10.4 0.00 0.13 0.13 41 1013.1
20260510021513 51 335 5.2 13.0 0.00 0.13 0.13 39 1012.7
20260510020006 52 323 6.1 13.9 0.00 0.13 0.13 38 1012.3
20260510014503 52 318 7.0 12.2 0.00 0.13 0.13 37 1012.0
20260510013002 53 342 5.2 10.4 0.00 0.13 0.13 37 1011.7
20260510011600 53 347 6.1 13.0 0.00 0.13 0.13 36 1011.5
20260510010136 54 311 5.2 10.4 0.00 0.13 0.13 35 1011.3
20260510004557 54 342 7.0 12.2 0.00 0.13 0.13 34 1011.0
20260510003054 54 298 5.2 12.2 0.00 0.13 0.13 34 1010.7
20260510001552 54 325 6.1 13.9 0.00 0.13 0.13 33 1010.6
20260510000051 55 316 6.1 13.9 0.00 0.13 0.13 32 1010.4
20260509234604 55 342 7.8 13.9 0.00 0.13 0.13 31 1010.3
20260509233046 55 326 7.0 13.0 0.00 0.13 0.13 31 1010.0
20260509231545 56 324 4.3 13.0 0.00 0.13 0.13 32 1009.9
20260509230045 57 319 7.0 13.9 0.00 0.13 0.13 30 1009.7
20260509224543 57 306 9.6 14.8 0.00 0.13 0.13 31 1009.6
20260509223042 57 343 9.6 18.2 0.00 0.13 0.13 30 1009.4
20260509221540 57 9 7.8 14.8 0.00 0.13 0.13 30 1009.2
20260509220040 57 31 9.6 17.4 0.00 0.13 0.13 31 1009.2
20260509214542 57 320 9.6 17.4 0.00 0.13 0.13 30 1009.1
20260509213037 58 312 11.3 20.9 0.00 0.13 0.13 31 1009.0
20260509211542 57 319 8.7 20.0 0.00 0.13 0.13 32 1008.8